Location: Caoba
(9.7667°N, 67.4833°W)
Time: 19:22:42
(UTC+00:00)

GOES 2 Rocket - Pass Details

Date: 06 December 2024
Orbit: 569 x 1662 km, 28.4° (Epoch: 14 January)

Event Time Altitude Azimuth Distance (km) Brightness Sun altitude
Exits shadow 09:02:40 10° 9° (N) 1,945 5.5 -21.8°
Reaches altitude 10° 09:02:47 10° 11° (N) 1,943 5.5 -21.7°
Maximum altitude 09:03:17 10° 17° (NNE) 1,948 5.6 -21.6°
Drops below altitude 10° 09:03:47 10° 24° (NNE) 1,975 5.7 -21.5°
Sets 09:08:53 0° 68° (ENE) 3,113 7.4 -20.3°
